Torna al catalogo

STARLINK-4576

AttivoComunicazioniVLEO
NORAD 53566·PAYLOAD·🇺🇸 United States

Lanciato Aug 19, 2022 da Cape Canaveral Space Force Station

Loading…

Prossimi Passaggi (prossime 24 ore)

TLE

AggiornatoSource: CelesTrak SupGP

Epoca: Sep 14, 2026, 21:13 UTC

1 53566C 22101AR  26257.88451389  .00041835  00000+0  12361-2 0  2571
2 53566  53.1568 269.9583 0001140  92.9177 126.8281 15.34367919    15

Traccia STARLINK-4576 in tempo reale con AllMySat

Download on the App Store